Accueil
METAR-TAF:

METAR-TAF

Aéroports :

Koné, Nouvelle-Calédonie

Aérodrome de Koné

latitude: 21-03-12S, longitude: 164-50-18E, altitude: 7 m

METAR: absent

Heure: 07:27 (20:27 UTC)

Prévision

Le bulletin a été fait il y a 3 heures et 27 minutes, à 17:00 UTC
Prévision valable du 22 à 18 UTC au 23 à 18 UTC
Vent 8 kt de est/nord-est
Visibilité 10 km ou plus
Nuages épars à une hauteur de 3000 ft
Nuages épars à une hauteur de 5000 ft

TAF: NWWD 221700Z 2218/2318 06008KT 9999 SCT030 SCT050

Observations et prévisions météorologiques de plus de 4000 aéroports (messages METAR et TAF).

Les stations disponibles sont représentées par des disques jaunes et rouges sur la carte.

Passer la souris dessus pour voir le nom de la station.

Cliquer dessus pour voir les observations et prévisions météorologiques.

Pour changer de carte: cliquez sur les boutons verts avec une croix noire pour zoomer, sur le bouton vert avec un tiret pour effectuer un zoom arrière, ou sur les flèches vertes pour les cartes adjacentes.


METAR-TAF: